,,,PA_Meas_PMT16A,,PR_Meas_QMR101_102,,RH_Meas_QMH101,,SR_Meas_QMS101,,TA_Meas_QMH101,,GenWind,,GenWind,
date,time,status,PA,status,PR,status,RH,status,SR,status,TA,status,DirAvg,status,SpdAvg,
2010-01-12, 00:00:04,VALID,1003.49,VALID,0,VALID,89.6088,VALID,0.100563,VALID,24.3617,VALID,302,VALID,0.625781,
2010-01-12, 00:01:04,VALID,1003.48,VALID,0,VALID,89.4715,VALID,0.100563,VALID,24.3617,VALID,307,VALID,1.59297,
2010-01-12, 00:02:04,VALID,1003.46,VALID,0,VALID,89.4639,VALID,0.100563,VALID,24.3422,VALID,326,VALID,0.948828,
2010-01-12, 00:03:04,VALID,1003.41,VALID,0,VALID,89.502,VALID,0,VALID,24.383,VALID,287,VALID,0.938281,
2010-01-12, 00:04:04,VALID,1003.39,VALID,0,VALID,89.4486,VALID,0.100563,VALID,24.3636,VALID,341,VALID,1.49648,
2010-01-12, 00:05:04,VALID,1003.31,VALID,0,VALID,89.3266,VALID,0,VALID,24.3209,VALID,352,VALID,2.15352,
2010-01-12, 00:06:04,VALID,1003.32,VALID,0,VALID,89.4105,VALID,0.100563,VALID,24.3422,VALID,360,VALID,0.524609,
2010-01-12, 00:07:04,VALID,1003.33,VALID,0,VALID,89.5402,VALID,0,VALID,24.3636,VALID,323,VALID,1.43438,
2010-01-12, 00:08:04,VALID,1003.32,VALID,0,VALID,89.5936,VALID,0,VALID,24.3441,VALID,312,VALID,1.975,
2010-01-12, 00:09:04,VALID,1003.28,VALID,0,VALID,89.4257,VALID,0.100563,VALID,24.3441,VALID,348,VALID,3.58047,
2010-01-12, 00:10:04,VALID,1003.3,VALID,0,VALID,89.5097,VALID,0.100563,VALID,24.3033,VALID,296,VALID,0.473047,
2010-01-12, 00:11:04,VALID,1003.29,VALID,0,VALID,89.5707,VALID,0.100563,VALID,24.3228,VALID,337,VALID,1.64141,
2010-01-12, 00:12:04,VALID,1003.28,VALID,0,VALID,89.5631,VALID,0,VALID,24.3052,VALID,320,VALID,1.42344,
2010-01-12, 00:13:04,VALID,1003.29,VALID,0,VALID,89.6622,VALID,0,VALID,24.3246,VALID,33,VALID,0.536328,
2010-01-12, 00:14:04,VALID,1003.24,VALID,0,VALID,89.647,VALID,0.100563,VALID,24.2839,VALID,344,VALID,1.89609,
2010-01-12, 00:15:04,VALID,1003.24,VALID,0,VALID,89.4257,VALID,0,VALID,24.2662,VALID,319,VALID,2.25117,
2010-01-12, 00:16:04,VALID,1003.31,VALID,0,VALID,89.2579,VALID,0,VALID,24.2662,VALID,307,VALID,1.71367,
2010-01-12, 00:17:04,VALID,1003.28,VALID,0,VALID,89.1664,VALID,0.100563,VALID,24.2449,VALID,311,VALID,1.81172,
2010-01-12, 00:18:04,VALID,1003.34,VALID,0,VALID,88.9604,VALID,0,VALID,24.2662,VALID,297,VALID,2.80039,
2010-01-12, 00:19:04,VALID,1003.31,VALID,0,VALID,88.968,VALID,0,VALID,24.2449,VALID,296,VALID,2.37148,
2010-01-12, 00:20:04,VALID,1003.3,VALID,0,VALID,88.8993,VALID,0,VALID,24.2662,VALID,299,VALID,1.90859,
2010-01-12, 00:21:04,VALID,1003.26,VALID,0,VALID,89.0519,VALID,0.100563,VALID,24.2662,VALID,299,VALID,1.33945,
2010-01-12, 00:22:04,VALID,1003.24,VALID,0,VALID,89.1816,VALID,0,VALID,24.2468,VALID,351,VALID,1.51563,
2010-01-12, 00:23:04,VALID,1003.2,VALID,0,VALID,89.2808,VALID,0,VALID,24.2486,VALID,327,VALID,2.33555,
2010-01-12, 00:24:04,VALID,1003.15,VALID,0,VALID,89.4715,VALID,0,VALID,24.2273,VALID,354,VALID,0.896875,
2010-01-12, 00:25:04,VALID,1003.14,VALID,0,VALID,89.5783,VALID,0.100563,VALID,24.1865,VALID,328,VALID,0.915234,
2010-01-12, 00:26:04,VALID,1003.07,VALID,0,VALID,89.441,VALID,0.100563,VALID,24.1884,VALID,259,VALID,1.61719,
2010-01-12, 00:27:04,VALID,1003.07,VALID,0,VALID,89.2274,VALID,0.100563,VALID,24.1671,VALID,296,VALID,2.00508,
2010-01-12, 00:28:04,VALID,1003,VALID,0,VALID,88.9985,VALID,0.100563,VALID,24.2078,VALID,302,VALID,1.94023,
2010-01-12, 00:29:04,VALID,1002.99,VALID,0,VALID,88.8841,VALID,0,VALID,24.2078,VALID,267,VALID,1.76719,
2010-01-12, 00:30:04,VALID,1002.99,VALID,0,VALID,88.7468,VALID,0,VALID,24.2078,VALID,294,VALID,2.48555,
2010-01-12, 00:31:04,VALID,1002.98,VALID,0,VALID,88.7086,VALID,0.100563,VALID,24.2273,VALID,315,VALID,1.42617,
2010-01-12, 00:32:04,VALID,1002.94,VALID,0,VALID,88.6018,VALID,0.100563,VALID,24.2273,VALID,285,VALID,1.14453,
2010-01-12, 00:33:04,VALID,1002.94,VALID,0,VALID,88.7162,VALID,0.100563,VALID,24.2273,VALID,333,VALID,1.06133,
2010-01-12, 00:34:04,VALID,1002.87,VALID,0,VALID,88.7544,VALID,0.100563,VALID,24.206,VALID,284,VALID,1.37188,
2010-01-12, 00:35:04,VALID,1002.87,VALID,0,VALID,88.5942,VALID,0.100563,VALID,24.1865,VALID,344,VALID,1.53281,
2010-01-12, 00:36:04,VALID,1002.87,VALID,0,VALID,88.7544,VALID,0.100563,VALID,24.1865,VALID,329,VALID,1.05625,
2010-01-12, 00:37:04,VALID,1002.84,VALID,0,VALID,88.8078,VALID,0.100563,VALID,24.1884,VALID,324,VALID,1.14102,
2010-01-12, 00:38:04,VALID,1002.81,VALID,0,VALID,88.7162,VALID,0.100563,VALID,24.1884,VALID,342,VALID,1.59766,
2010-01-12, 00:39:04,VALID,1002.83,VALID,0,VALID,88.6476,VALID,0.100563,VALID,24.1884,VALID,303,VALID,1.46328,
2010-01-12, 00:40:04,VALID,1002.84,VALID,0,VALID,88.6323,VALID,0.100563,VALID,24.1884,VALID,2,VALID,1.3082,
2010-01-12, 00:41:04,VALID,1002.79,VALID,0,VALID,88.6857,VALID,0.100563,VALID,24.1476,VALID,350,VALID,1.33203,
2010-01-12, 00:42:04,VALID,1002.78,VALID,0,VALID,88.7315,VALID,0.100563,VALID,24.1689,VALID,309,VALID,1.3418,
2010-01-12, 00:43:04,VALID,1002.78,VALID,0,VALID,88.8154,VALID,0.100563,VALID,24.1494,VALID,348,VALID,1.1082,
2010-01-12, 00:44:04,VALID,1002.73,VALID,0,VALID,88.8612,VALID,0,VALID,24.1105,VALID,299,VALID,2.30312,
2010-01-12, 00:45:04,VALID,1002.75,VALID,0,VALID,88.8841,VALID,0,VALID,24.1318,VALID,339,VALID,1.38008,
2010-01-12, 00:46:04,VALID,1002.74,VALID,0,VALID,88.8002,VALID,0,VALID,24.1123,VALID,311,VALID,0.980859,
2010-01-12, 00:47:04,VALID,1002.73,VALID,0,VALID,88.8841,VALID,0,VALID,24.091,VALID,320,VALID,0.891406,
2010-01-12, 00:48:04,VALID,1002.72,VALID,0,VALID,88.6247,VALID,0,VALID,24.0929,VALID,333,VALID,1.91562,
2010-01-12, 00:49:04,VALID,1002.69,VALID,0,VALID,88.5637,VALID,0,VALID,24.0716,VALID,313,VALID,1.51172,
2010-01-12, 00:50:04,VALID,1002.71,VALID,0,VALID,88.4111,VALID,0,VALID,24.1123,VALID,357,VALID,2.18516,
2010-01-12, 00:51:04,VALID,1002.72,VALID,0,VALID,87.9762,VALID,0,VALID,24.1318,VALID,318,VALID,1.51836,
2010-01-12, 00:52:04,VALID,1002.65,VALID,0,VALID,87.6863,VALID,0,VALID,24.13,VALID,284,VALID,3.14609,
2010-01-12, 00:53:04,VALID,1002.67,VALID,0,VALID,87.7626,VALID,0,VALID,24.2097,VALID,295,VALID,1.57266,
2010-01-12, 00:54:04,VALID,1002.7,VALID,0,VALID,87.8313,VALID,0,VALID,24.1689,VALID,297,VALID,0.932813,
2010-01-12, 00:55:04,VALID,1002.7,VALID,0,VALID,87.9152,VALID,0,VALID,24.1689,VALID,309,VALID,1.62734,
2010-01-12, 00:56:04,VALID,1002.69,VALID,0,VALID,87.9152,VALID,0,VALID,24.1902,VALID,324,VALID,1.15,
2010-01-12, 00:57:04,VALID,1002.67,VALID,0,VALID,87.9915,VALID,0,VALID,24.1513,VALID,340,VALID,1.46094,
2010-01-12, 00:58:04,VALID,1002.69,VALID,0,VALID,87.8389,VALID,0,VALID,24.1494,VALID,340,VALID,2.78008,
2010-01-12, 00:59:04,VALID,1002.66,VALID,0,VALID,87.8618,VALID,0,VALID,24.1494,VALID,282,VALID,1.91797,
2010-01-12, 01:00:04,VALID,1002.68,VALID,0,VALID,87.9839,VALID,0,VALID,24.13,VALID,340,VALID,1.52383,
2010-01-12, 01:01:04,VALID,1002.67,VALID,0,VALID,87.9381,VALID,0,VALID,24.1707,VALID,336,VALID,2.35195,
2010-01-12, 01:02:04,VALID,1002.64,VALID,0,VALID,88.1441,VALID,0,VALID,24.1318,VALID,353,VALID,2.12539,
2010-01-12, 01:03:04,VALID,1002.64,VALID,0,VALID,88.3729,VALID,0,VALID,24.091,VALID,293,VALID,1.56016,
2010-01-12, 01:04:04,VALID,1002.63,VALID,0,VALID,88.6018,VALID,0,VALID,24.0929,VALID,316,VALID,2.35273,
2010-01-12, 01:05:04,VALID,1002.61,VALID,0,VALID,88.6857,VALID,0,VALID,24.0521,VALID,294,VALID,1.02422,
2010-01-12, 01:06:04,VALID,1002.57,VALID,0,VALID,88.8765,VALID,0,VALID,24.0345,VALID,358,VALID,2.77852,
2010-01-12, 01:07:04,VALID,1002.64,VALID,0,VALID,89.029,VALID,0,VALID,24.015,VALID,319,VALID,2.56797,
2010-01-12, 01:08:04,VALID,1002.6,VALID,0,VALID,89.1282,VALID,0,VALID,24.015,VALID,337,VALID,3.23711,
2010-01-12, 01:09:04,VALID,1002.64,VALID,0,VALID,89.4028,VALID,0,VALID,24.015,VALID,323,VALID,1.44258,
2010-01-12, 01:10:04,VALID,1002.58,VALID,0,VALID,89.5631,VALID,0,VALID,23.9742,VALID,357,VALID,2.43633,
2010-01-12, 01:11:04,VALID,1002.58,VALID,0,VALID,89.853,VALID,0,VALID,23.9159,VALID,346,VALID,2.30742,
2010-01-12, 01:12:04,VALID,1002.62,VALID,0,VALID,90.0132,VALID,0,VALID,23.8964,VALID,305,VALID,1.59219,
2010-01-12, 01:13:04,VALID,1002.6,VALID,0,VALID,90.1963,VALID,0,VALID,23.8769,VALID,331,VALID,1.26367,
2010-01-12, 01:14:04,VALID,1002.58,VALID,0,VALID,90.3946,VALID,0.100563,VALID,23.8362,VALID,350,VALID,2.70273,
2010-01-12, 01:15:04,VALID,1002.64,VALID,0,VALID,90.448,VALID,0,VALID,23.838,VALID,15,VALID,1.12734,
2010-01-12, 01:16:04,VALID,1002.62,VALID,0,VALID,90.6845,VALID,0,VALID,23.8593,VALID,282,VALID,1.32578,
2010-01-12, 01:17:04,VALID,1002.62,VALID,0,VALID,90.6464,VALID,0,VALID,23.8398,VALID,359,VALID,3.05469,
2010-01-12, 01:18:04,VALID,1002.68,VALID,0,VALID,90.8142,VALID,0,VALID,23.8398,VALID,343,VALID,0.980469,
2010-01-12, 01:19:04,VALID,1002.64,VALID,0,VALID,90.9286,VALID,0,VALID,23.7991,VALID,344,VALID,1.36133,
2010-01-12, 01:20:04,VALID,1002.7,VALID,0,VALID,90.86,VALID,0,VALID,23.8009,VALID,348,VALID,3.08008,
2010-01-12, 01:21:04,VALID,1002.68,VALID,0,VALID,90.9363,VALID,0,VALID,23.8203,VALID,334,VALID,1.32539,
2010-01-12, 01:22:04,VALID,1002.61,VALID,0,VALID,90.921,VALID,0,VALID,23.8009,VALID,343,VALID,0.978906,
2010-01-12, 01:23:04,VALID,1002.59,VALID,0.5,VALID,90.9057,VALID,0,VALID,23.7796,VALID,326,VALID,1.47148,
2010-01-12, 01:24:04,VALID,1002.62,VALID,0,VALID,91.0888,VALID,0,VALID,23.8009,VALID,284,VALID,1.36758,
2010-01-12, 01:25:04,VALID,1002.65,VALID,0,VALID,91.188,VALID,0,VALID,23.7814,VALID,294,VALID,0.986719,
2010-01-12, 01:26:04,VALID,1002.63,VALID,0,VALID,91.1956,VALID,0,VALID,23.7619,VALID,333,VALID,0.947266,
2010-01-12, 01:27:04,VALID,1002.57,VALID,0,VALID,90.9057,VALID,0,VALID,23.7619,VALID,349,VALID,3.02422,
2010-01-12, 01:28:04,VALID,1002.58,VALID,0,VALID,90.7303,VALID,0,VALID,23.8009,VALID,347,VALID,1.59258,
2010-01-12, 01:29:04,VALID,1002.61,VALID,0,VALID,90.5777,VALID,0,VALID,23.7796,VALID,316,VALID,3.03203,
2010-01-12, 01:30:04,VALID,1002.6,VALID,0,VALID,90.6845,VALID,0,VALID,23.7991,VALID,340,VALID,1.7543,
2010-01-12, 01:31:04,VALID,1002.61,VALID,0,VALID,90.6998,VALID,0,VALID,23.8009,VALID,353,VALID,2.69922,
2010-01-12, 01:32:04,VALID,1002.61,VALID,0,VALID,90.8905,VALID,0,VALID,23.7814,VALID,262,VALID,0.713281,
2010-01-12, 01:33:04,VALID,1002.61,VALID,0,VALID,91.0354,VALID,0,VALID,23.7814,VALID,300,VALID,1.82617,
2010-01-12, 01:34:04,VALID,1002.57,VALID,0,VALID,91.2185,VALID,0,VALID,23.7619,VALID,356,VALID,1.47422,
2010-01-12, 01:35:04,VALID,1002.59,VALID,0,VALID,91.4703,VALID,0,VALID,23.723,VALID,349,VALID,1.59375,
2010-01-12, 01:36:04,VALID,1002.53,VALID,0,VALID,91.5466,VALID,0,VALID,23.7035,VALID,336,VALID,0.427734,
2010-01-12, 01:37:04,VALID,1002.52,VALID,0.5,VALID,91.6229,VALID,0,VALID,23.7035,VALID,336,VALID,2.48398,
2010-01-12, 01:38:04,VALID,1002.49,VALID,0,VALID,91.5389,VALID,0,VALID,23.7035,VALID,345,VALID,0.998828,
2010-01-12, 01:39:04,VALID,1002.51,VALID,0,VALID,91.6152,VALID,0,VALID,23.7017,VALID,296,VALID,0.900391,
2010-01-12, 01:40:04,VALID,1002.48,VALID,0,VALID,91.7678,VALID,0,VALID,23.7035,VALID,295,VALID,1.4625,
2010-01-12, 01:41:04,VALID,1002.47,VALID,0,VALID,91.8746,VALID,0,VALID,23.7035,VALID,337,VALID,0.917188,
2010-01-12, 01:42:04,VALID,1002.47,VALID,0,VALID,91.9051,VALID,0,VALID,23.6628,VALID,317,VALID,0.923828,
2010-01-12, 01:43:04,VALID,1002.42,VALID,0,VALID,91.9738,VALID,0,VALID,23.7035,VALID,348,VALID,0.431641,
2010-01-12, 01:44:04,VALID,1002.42,VALID,0,VALID,91.9967,VALID,0,VALID,23.7035,VALID,348,VALID,0.731641,
2010-01-12, 01:45:04,VALID,1002.4,VALID,0,VALID,92.073,VALID,0,VALID,23.7248,VALID,335,VALID,0.919141,
2010-01-12, 01:46:04,VALID,1002.31,VALID,0,VALID,92.1187,VALID,0,VALID,23.7035,VALID,348,VALID,1.05469,
2010-01-12, 01:47:04,VALID,1002.31,VALID,0,VALID,92.1569,VALID,0,VALID,23.723,VALID,344,VALID,0.212109,
2010-01-12, 01:48:04,VALID,1002.36,VALID,0,VALID,92.2179,VALID,0,VALID,23.7017,VALID,285,VALID,0.0417969,
2010-01-12, 01:49:04,VALID,1002.36,VALID,0.5,VALID,92.3095,VALID,0,VALID,23.6823,VALID,312,VALID,0.848047,
2010-01-12, 01:50:04,VALID,1002.38,VALID,0,VALID,92.3705,VALID,0,VALID,23.6823,VALID,309,VALID,0.182422,
2010-01-12, 01:51:04,VALID,1002.38,VALID,0,VALID,92.3857,VALID,0,VALID,23.7035,VALID,316,VALID,1.63164,
2010-01-12, 01:52:04,VALID,1002.36,VALID,0,VALID,92.3476,VALID,0,VALID,23.6823,VALID,334,VALID,0.902344,
2010-01-12, 01:53:04,VALID,1002.41,VALID,0,VALID,92.4315,VALID,0,VALID,23.7212,VALID,294,VALID,0,
2010-01-12, 01:54:04,VALID,1002.46,VALID,0,VALID,92.4163,VALID,0,VALID,23.7017,VALID,295,VALID,0.599219,
2010-01-12, 01:55:04,VALID,1002.48,VALID,0,VALID,92.3476,VALID,0,VALID,23.6823,VALID,299,VALID,1.76406,
2010-01-12, 01:56:04,VALID,1002.5,VALID,0,VALID,92.2408,VALID,0,VALID,23.6823,VALID,317,VALID,1.46992,
2010-01-12, 01:57:04,VALID,1002.56,VALID,0,VALID,92.195,VALID,0,VALID,23.7212,VALID,313,VALID,0.538672,
2010-01-12, 01:58:04,VALID,1002.52,VALID,0,VALID,92.1645,VALID,0,VALID,23.7425,VALID,296,VALID,1.58125,
2010-01-12, 01:59:04,VALID,1002.51,VALID,0,VALID,92.1035,VALID,0,VALID,23.7017,VALID,320,VALID,1.5375,
2010-01-12, 02:00:04,VALID,1002.51,VALID,0,VALID,92.0424,VALID,0,VALID,23.723,VALID,339,VALID,0.584375,
2010-01-12, 02:01:04,VALID,1002.51,VALID,0,VALID,92.0806,VALID,0,VALID,23.7425,VALID,342,VALID,0.621875,
2010-01-12, 02:02:04,VALID,1002.5,VALID,0,VALID,92.134,VALID,0,VALID,23.7035,VALID,352,VALID,1.35039,
2010-01-12, 02:03:04,VALID,1002.42,VALID,0.5,VALID,92.2027,VALID,0,VALID,23.723,VALID,303,VALID,1.36758,
2010-01-12, 02:04:04,VALID,1002.38,VALID,0,VALID,92.2866,VALID,0,VALID,23.723,VALID,344,VALID,1.63047,
2010-01-12, 02:05:04,VALID,1002.39,VALID,0,VALID,92.3781,VALID,0,VALID,23.7407,VALID,329,VALID,1.19062,
2010-01-12, 02:06:04,VALID,1002.33,VALID,0,VALID,92.3857,VALID,0,VALID,23.7814,VALID,299,VALID,2.08633,
2010-01-12, 02:07:04,VALID,1002.29,VALID,0,VALID,92.3781,VALID,0,VALID,23.7814,VALID,347,VALID,1.0207,
2010-01-12, 02:08:04,VALID,1002.25,VALID,0,VALID,92.4163,VALID,0,VALID,23.7619,VALID,330,VALID,0.473828,
2010-01-12, 02:09:04,VALID,1002.22,VALID,0,VALID,92.5154,VALID,0,VALID,23.7814,VALID,338,VALID,1.89414,
2010-01-12, 02:10:04,VALID,1002.22,VALID,0,VALID,92.5612,VALID,0,VALID,23.7814,VALID,299,VALID,0.0671875,
2010-01-12, 02:11:04,VALID,1002.21,VALID,0,VALID,92.668,VALID,0,VALID,23.7814,VALID,236,VALID,0.359375,
2010-01-12, 02:12:04,VALID,1002.19,VALID,0,VALID,92.7214,VALID,0,VALID,23.7619,VALID,345,VALID,0.871094,
2010-01-12, 02:13:04,VALID,1002.22,VALID,0,VALID,92.8053,VALID,0,VALID,23.8009,VALID,337,VALID,1.04883,
2010-01-12, 02:14:04,VALID,1002.22,VALID,0,VALID,92.8587,VALID,0,VALID,23.7796,VALID,270,VALID,1.16211,
2010-01-12, 02:15:04,VALID,1002.18,VALID,0,VALID,92.8664,VALID,0.100563,VALID,23.7796,VALID,296,VALID,1.38711,
2010-01-12, 02:16:04,VALID,1002.18,VALID,0,VALID,92.9121,VALID,0.100563,VALID,23.7583,VALID,282,VALID,0.216797,
2010-01-12, 02:17:04,VALID,1002.17,VALID,0,VALID,92.935,VALID,0,VALID,23.8009,VALID,292,VALID,0.460938,
2010-01-12, 02:18:04,VALID,1002.18,VALID,0,VALID,92.9579,VALID,0,VALID,23.7583,VALID,305,VALID,0.889453,
2010-01-12, 02:19:04,VALID,1002.21,VALID,0,VALID,92.935,VALID,0,VALID,23.7601,VALID,279,VALID,1.40859,
2010-01-12, 02:20:04,VALID,1002.2,VALID,0,VALID,92.9274,VALID,0.100563,VALID,23.7601,VALID,339,VALID,0.592188,
2010-01-12, 02:21:04,VALID,1002.25,VALID,0,VALID,92.8816,VALID,0,VALID,23.7601,VALID,312,VALID,1.09727,
2010-01-12, 02:22:04,VALID,1002.25,VALID,0,VALID,92.8892,VALID,0,VALID,23.7583,VALID,316,VALID,0.379297,
2010-01-12, 02:23:04,VALID,1002.28,VALID,0,VALID,92.8969,VALID,0.100563,VALID,23.7583,VALID,306,VALID,0.878125,
2010-01-12, 02:24:04,VALID,1002.2,VALID,0,VALID,92.8892,VALID,0.100563,VALID,23.7796,VALID,305,VALID,0.637109,
2010-01-12, 02:25:04,VALID,1002.24,VALID,0,VALID,92.8816,VALID,0.100563,VALID,23.7796,VALID,294,VALID,1.63086,
2010-01-12, 02:26:04,VALID,1002.25,VALID,0,VALID,92.8816,VALID,0,VALID,23.7601,VALID,347,VALID,1.24023,
2010-01-12, 02:27:04,VALID,1002.24,VALID,0,VALID,92.8816,VALID,0.100563,VALID,23.7601,VALID,267,VALID,0.773047,
2010-01-12, 02:28:04,VALID,1002.21,VALID,0,VALID,92.8664,VALID,0.100563,VALID,23.7796,VALID,296,VALID,1.40742,
2010-01-12, 02:29:04,VALID,1002.16,VALID,0,VALID,92.7596,VALID,0,VALID,23.8009,VALID,292,VALID,2.54258,
2010-01-12, 02:30:04,VALID,1002.12,VALID,0,VALID,92.6375,VALID,0,VALID,23.8185,VALID,316,VALID,0.5625,
2010-01-12, 02:31:04,VALID,1002.11,VALID,0,VALID,92.5841,VALID,0,VALID,23.838,VALID,262,VALID,0.757422,
2010-01-12, 02:32:04,VALID,1002.09,VALID,0,VALID,92.4315,VALID,0,VALID,23.8362,VALID,285,VALID,0.793359,
2010-01-12, 02:33:04,VALID,1002.03,VALID,0,VALID,92.3552,VALID,0,VALID,23.8593,VALID,289,VALID,1.12188,
2010-01-12, 02:34:04,VALID,1002.01,VALID,0,VALID,92.1874,VALID,0,VALID,23.8593,VALID,287,VALID,1.19922,
2010-01-12, 02:35:04,VALID,1002,VALID,0,VALID,92.0958,VALID,0,VALID,23.8787,VALID,279,VALID,1.45273,
2010-01-12, 02:36:04,VALID,1002,VALID,0,VALID,92.0119,VALID,0,VALID,23.8982,VALID,284,VALID,1.00039,
2010-01-12, 02:37:04,VALID,1001.96,VALID,0,VALID,91.8212,VALID,0,VALID,23.8787,VALID,309,VALID,2.87422,
2010-01-12, 02:38:04,VALID,1001.95,VALID,0,VALID,91.5847,VALID,0,VALID,23.8982,VALID,300,VALID,1.29531,
2010-01-12, 02:39:04,VALID,1001.92,VALID,0,VALID,91.4398,VALID,0,VALID,23.9177,VALID,278,VALID,2.1418,
2010-01-12, 02:40:04,VALID,1001.89,VALID,0,VALID,91.3101,VALID,0,VALID,23.9177,VALID,298,VALID,0.439453,
2010-01-12, 02:41:04,VALID,1001.86,VALID,0,VALID,91.3024,VALID,0,VALID,23.9389,VALID,300,VALID,0.569922,
2010-01-12, 02:42:04,VALID,1001.82,VALID,0,VALID,91.2414,VALID,0,VALID,23.9159,VALID,297,VALID,0.23125,
2010-01-12, 02:43:04,VALID,1001.81,VALID,0,VALID,91.2567,VALID,0,VALID,23.8982,VALID,280,VALID,1.30898,
2010-01-12, 02:44:04,VALID,1001.84,VALID,0,VALID,91.127,VALID,0,VALID,23.8982,VALID,309,VALID,0.188281,
2010-01-12, 02:45:04,VALID,1001.79,VALID,0,VALID,91.2185,VALID,0,VALID,23.8982,VALID,249,VALID,0.270312,
2010-01-12, 02:46:04,VALID,1001.83,VALID,0,VALID,91.2796,VALID,0,VALID,23.8982,VALID,257,VALID,0.308203,
2010-01-12, 02:47:04,VALID,1001.82,VALID,0,VALID,91.3864,VALID,0,VALID,23.8769,VALID,262,VALID,0.505469,
2010-01-12, 02:48:04,VALID,1001.8,VALID,0,VALID,91.3864,VALID,0,VALID,23.8593,VALID,302,VALID,0.199219,
2010-01-12, 02:49:04,VALID,1001.82,VALID,0,VALID,91.4932,VALID,0,VALID,23.8593,VALID,296,VALID,0.474219,
2010-01-12, 02:50:04,VALID,1001.78,VALID,0,VALID,91.5542,VALID,0,VALID,23.8787,VALID,309,VALID,0.884766,
2010-01-12, 02:51:04,VALID,1001.78,VALID,0,VALID,91.5847,VALID,0,VALID,23.8398,VALID,318,VALID,0,
2010-01-12, 02:52:04,VALID,1001.77,VALID,0,VALID,91.6991,VALID,0,VALID,23.8185,VALID,309,VALID,0.214062,
2010-01-12, 02:53:04,VALID,1001.79,VALID,0,VALID,91.7373,VALID,0,VALID,23.7991,VALID,291,VALID,0.187891,
2010-01-12, 02:54:04,VALID,1001.77,VALID,0,VALID,91.7525,VALID,0,VALID,23.8009,VALID,285,VALID,0,
2010-01-12, 02:55:04,VALID,1001.8,VALID,0,VALID,91.7983,VALID,0,VALID,23.8009,VALID,287,VALID,0.633203,
2010-01-12, 02:56:04,VALID,1001.77,VALID,0,VALID,91.8517,VALID,0,VALID,23.8009,VALID,294,VALID,1.02617,
2010-01-12, 02:57:04,VALID,1001.8,VALID,0,VALID,91.867,VALID,0,VALID,23.7601,VALID,288,VALID,0.641797,
2010-01-12, 02:58:04,VALID,1001.8,VALID,0,VALID,91.9051,VALID,0,VALID,23.7601,VALID,283,VALID,0.867578,
2010-01-12, 02:59:04,VALID,1001.83,VALID,0,VALID,91.9051,VALID,0.100563,VALID,23.7796,VALID,302,VALID,0.541406,
2010-01-12, 03:00:04,VALID,1001.86,VALID,0,VALID,91.9051,VALID,0.100563,VALID,23.7796,VALID,272,VALID,0.733984,
2010-01-12, 03:01:04,VALID,1001.85,VALID,0,VALID,91.8975,VALID,0,VALID,23.7796,VALID,293,VALID,1.07187,
2010-01-12, 03:02:04,VALID,1001.86,VALID,0,VALID,91.8212,VALID,0.100563,VALID,23.7778,VALID,314,VALID,0.908594,
2010-01-12, 03:03:04,VALID,1001.85,VALID,0,VALID,91.867,VALID,0,VALID,23.7991,VALID,291,VALID,1.03945,
2010-01-12, 03:04:04,VALID,1001.85,VALID,0,VALID,91.8746,VALID,0.100563,VALID,23.8185,VALID,312,VALID,0.0195313,
2010-01-12, 03:05:04,VALID,1001.83,VALID,0,VALID,91.9433,VALID,0.100563,VALID,23.838,VALID,298,VALID,0.130469,
2010-01-12, 03:06:04,VALID,1001.81,VALID,0,VALID,91.9051,VALID,0.100563,VALID,23.8185,VALID,350,VALID,0.223438,
2010-01-12, 03:07:04,VALID,1001.82,VALID,0,VALID,91.9738,VALID,0.100563,VALID,23.8185,VALID,348,VALID,0.0929687,
2010-01-12, 03:08:04,VALID,1001.82,VALID,0,VALID,92.0348,VALID,0.100563,VALID,23.7973,VALID,259,VALID,0.0851562,
2010-01-12, 03:09:04,VALID,1001.83,VALID,0,VALID,92.0653,VALID,0,VALID,23.776,VALID,259,VALID,0,
2010-01-12, 03:10:04,VALID,1001.82,VALID,0,VALID,92.0958,VALID,0.100563,VALID,23.7991,VALID,263,VALID,0.340234,
2010-01-12, 03:11:04,VALID,1001.8,VALID,0,VALID,92.1187,VALID,0.100563,VALID,23.7796,VALID,313,VALID,0.596875,
2010-01-12, 03:12:04,VALID,1001.8,VALID,0,VALID,92.134,VALID,0,VALID,23.7796,VALID,320,VALID,0.235547,
2010-01-12, 03:13:04,VALID,1001.8,VALID,0,VALID,92.1569,VALID,0,VALID,23.7601,VALID,356,VALID,0.697266,
2010-01-12, 03:14:04,VALID,1001.81,VALID,0,VALID,92.1645,VALID,0.100563,VALID,23.7796,VALID,324,VALID,0.387109,
2010-01-12, 03:15:04,VALID,1001.79,VALID,0,VALID,92.2103,VALID,0.100563,VALID,23.7796,VALID,324,VALID,0.294922,
2010-01-12, 03:16:04,VALID,1001.78,VALID,0,VALID,92.2408,VALID,0,VALID,23.8009,VALID,289,VALID,0,
2010-01-12, 03:17:04,VALID,1001.76,VALID,0,VALID,92.3095,VALID,0.100563,VALID,23.7583,VALID,304,VALID,0.244141,
2010-01-12, 03:18:04,VALID,1001.79,VALID,0,VALID,92.34,VALID,0.100563,VALID,23.7583,VALID,305,VALID,0,
2010-01-12, 03:19:04,VALID,1001.76,VALID,0,VALID,92.3629,VALID,0,VALID,23.7796,VALID,350,VALID,0.384375,
2010-01-12, 03:20:04,VALID,1001.73,VALID,0,VALID,92.3934,VALID,0.100563,VALID,23.7601,VALID,349,VALID,0,
2010-01-12, 03:21:04,VALID,1001.73,VALID,0,VALID,92.401,VALID,0,VALID,23.7601,VALID,349,VALID,0,
2010-01-12, 03:22:04,VALID,1001.75,VALID,0,VALID,92.4468,VALID,0.100563,VALID,23.7389,VALID,348,VALID,0,
2010-01-12, 03:23:04,VALID,1001.78,VALID,0,VALID,92.4849,VALID,0.100563,VALID,23.7601,VALID,329,VALID,0.313672,
2010-01-12, 03:24:04,VALID,1001.74,VALID,0,VALID,92.5231,VALID,0.100563,VALID,23.7407,VALID,305,VALID,0.192969,
2010-01-12, 03:25:04,VALID,1001.75,VALID,0,VALID,92.5231,VALID,0.100563,VALID,23.7814,VALID,360,VALID,0.379687,
2010-01-12, 03:26:04,VALID,1001.73,VALID,0,VALID,92.5307,VALID,0.100563,VALID,23.7407,VALID,346,VALID,0,
2010-01-12, 03:27:04,VALID,1001.71,VALID,0,VALID,92.5612,VALID,0,VALID,23.7601,VALID,346,VALID,0.00117188,
2010-01-12, 03:28:04,VALID,1001.72,VALID,0,VALID,92.5765,VALID,0.100563,VALID,23.7389,VALID,340,VALID,0.204688,
2010-01-12, 03:29:04,VALID,1001.72,VALID,0,VALID,92.5841,VALID,0,VALID,23.7619,VALID,358,VALID,0.674609,
2010-01-12, 03:30:04,VALID,1001.73,VALID,0,VALID,92.6375,VALID,0,VALID,23.7814,VALID,6,VALID,0.351563,
2010-01-12, 03:31:04,VALID,1001.73,VALID,0,VALID,92.668,VALID,0,VALID,23.7814,VALID,325,VALID,0,
2010-01-12, 03:32:04,VALID,1001.7,VALID,0,VALID,92.7062,VALID,0,VALID,23.7796,VALID,1,VALID,0.80625,
2010-01-12, 03:33:04,VALID,1001.72,VALID,0,VALID,92.7367,VALID,0,VALID,23.8203,VALID,346,VALID,0.558984,
2010-01-12, 03:34:04,VALID,1001.68,VALID,0,VALID,92.7367,VALID,0,VALID,23.8398,VALID,305,VALID,0.408594,
2010-01-12, 03:35:04,VALID,1001.69,VALID,0,VALID,92.7977,VALID,0,VALID,23.8575,VALID,313,VALID,0.658594,
2010-01-12, 03:36:04,VALID,1001.71,VALID,0,VALID,92.8053,VALID,0,VALID,23.8593,VALID,287,VALID,0.614453,
2010-01-12, 03:37:04,VALID,1001.74,VALID,0,VALID,92.8206,VALID,0,VALID,23.8575,VALID,296,VALID,1.70547,
2010-01-12, 03:38:04,VALID,1001.72,VALID,0,VALID,92.8282,VALID,0,VALID,23.8982,VALID,259,VALID,0.628125,
2010-01-12, 03:39:04,VALID,1001.72,VALID,0,VALID,92.8206,VALID,0,VALID,23.9566,VALID,277,VALID,0.353125,
2010-01-12, 03:40:04,VALID,1001.67,VALID,0,VALID,92.7748,VALID,0,VALID,23.9742,VALID,289,VALID,1.94961,
2010-01-12, 03:41:04,VALID,1001.68,VALID,0,VALID,92.6604,VALID,0,VALID,24.0132,VALID,307,VALID,0.402734,
2010-01-12, 03:42:04,VALID,1001.74,VALID,0,VALID,92.5612,VALID,0,VALID,24.0521,VALID,290,VALID,1.13086,